Wrangell, AK

9:42 AM AKST on February 13, 2016 (GMT -0900)
Wrangell

Weather History for PAWG - October, 2013

Change the Weather History Date:

Sunday, October 27, 2013

  Actual Average Record
Temperature  
Mean Temperature 40 °F -  
Max Temperature 44 °F 46 °F 57 °F (1965)
Min Temperature 37 °F 35 °F 19 °F (1956)
Degree Days  
Heating Degree Days 24    
Moisture  
Dew Point 37 °F    
Average Humidity 82    
Maximum Humidity 93    
Minimum Humidity 76    
Precipitation  
Precipitation 0.00 in - - ()
Sea Level Pressure  
Sea Level Pressure 30.53 in    
Wind  
Wind Speed 4 mph (SE)    
Max Wind Speed 8 mph    
Max Gust Speed -    
Visibility 8 miles    
Events      
Averages and records for this station are not official NWS values.
T = Trace of Precipitation, MM = Missing Value Source: NWS Daily Summary

Daily Weather History Graph

Daily Weather History Graph

Search for Another Location

Airport or City:

Trip Planner

Search our weather history database for the weather conditions in past years. The results will help you decide how hot, cold, wet, or windy it might be!

Date:

Astronomy

Oct. 27, 2013 Rise Set
Actual Time 7:48 AM AKDT 5:17 PM AKDT
Civil Twilight 7:08 AM AKDT 5:56 PM AKDT
Nautical Twilight 6:24 AM AKDT 6:41 PM AKDT
Astronomical Twilight 5:40 AM AKDT 7:24 PM AKDT
Moon No Moon Rise 2:37 PM AKDT (10/27)
Length of Visible Light 10h 48m
Length of Day
9h 29m
Last Quarter, 42% of the Moon is Illuminated
Oct 27
Last Quarter
Nov 3
New
Nov 9
First Quarter
Nov 17
Full
Nov 25
Last Quarter

Hourly Weather History & Observations

Time (AKDT) Temp. Windchill Dew Point Humidity Pressure Visibility Wind Dir Wind Speed Gust Speed Precip Events Conditions
12:16 AM 42.8 °F 38.6 °F 37.4 °F 81% 30.51 in 10.0 mi West 6.9 mph - N/A   Clear
12:36 AM 42.8 °F - 37.4 °F 81% 30.51 in 10.0 mi Calm Calm - N/A   Clear
12:56 AM 42.8 °F - 37.4 °F 81% 30.52 in 10.0 mi Calm Calm - N/A   Clear
1:16 AM 42.8 °F 38.0 °F 37.4 °F 81% 30.53 in 10.0 mi West 8.1 mph - N/A   Clear
1:36 AM 42.8 °F 39.3 °F 37.4 °F 81% 30.54 in 10.0 mi NW 5.8 mph - N/A   Clear
1:56 AM 42.8 °F 40.1 °F 35.6 °F 76% 30.54 in 10.0 mi WNW 4.6 mph - N/A   Clear
2:16 AM 42.8 °F 38.6 °F 35.6 °F 76% 30.54 in 10.0 mi NW 6.9 mph - N/A   Clear
2:36 AM 41.0 °F 37.1 °F 35.6 °F 81% 30.55 in 10.0 mi West 5.8 mph - N/A   Clear
2:56 AM 42.8 °F 39.3 °F 35.6 °F 76% 30.55 in 10.0 mi NW 5.8 mph - N/A   Clear
3:16 AM 42.8 °F 39.3 °F 35.6 °F 76% 30.56 in 10.0 mi NW 5.8 mph - N/A   Clear
3:36 AM 41.0 °F - 37.4 °F 87% 30.56 in 10.0 mi Calm Calm - N/A   Clear
3:56 AM 39.2 °F - 35.6 °F 87% 30.56 in 10.0 mi Calm Calm - N/A   Clear
4:16 AM 39.2 °F 37.0 °F 33.8 °F 81% 30.55 in 10.0 mi SSW 3.5 mph - N/A   Clear
4:36 AM 39.2 °F 35.0 °F 35.6 °F 87% 30.55 in 10.0 mi SE 5.8 mph - N/A   Clear
4:56 AM 39.2 °F - 35.6 °F 87% 30.54 in 10.0 mi Calm Calm - N/A   Clear
5:16 AM 39.2 °F - 35.6 °F 87% 30.56 in 10.0 mi Calm Calm - N/A   Clear
5:36 AM 39.2 °F - 35.6 °F 87% 30.56 in 10.0 mi Calm Calm - N/A   Clear
5:56 AM 37.4 °F 34.9 °F 33.8 °F 87% 30.57 in 10.0 mi South 3.5 mph - N/A   Mostly Cloudy
6:16 AM 39.2 °F - 35.6 °F 87% 30.57 in 10.0 mi Calm Calm - N/A   Mostly Cloudy
6:36 AM 37.4 °F 34.9 °F 33.8 °F 87% 30.57 in 10.0 mi SSE 3.5 mph - N/A   Mostly Cloudy
6:56 AM 39.2 °F 35.9 °F 35.6 °F 87% 30.57 in 10.0 mi SE 4.6 mph - N/A   Mostly Cloudy
7:16 AM 39.2 °F 35.9 °F 35.6 °F 87% 30.58 in 10.0 mi SE 4.6 mph - N/A   Mostly Cloudy
7:36 AM 39.2 °F 35.0 °F 35.6 °F 87% 30.58 in 1.0 mi SE 5.8 mph - N/A   Overcast
7:56 AM 39.2 °F 35.9 °F 35.6 °F 87% 30.58 in 0.5 mi SE 4.6 mph - N/A   Overcast
8:16 AM 39.2 °F 35.0 °F 35.6 °F 87% 30.58 in 0.5 mi SE 5.8 mph - N/A   Overcast
8:36 AM 39.2 °F 34.2 °F 35.6 °F 87% 30.58 in 0.5 mi ESE 6.9 mph - N/A   Overcast
8:56 AM 39.2 °F 35.0 °F 35.6 °F 87% 30.58 in 0.5 mi SE 5.8 mph - N/A   Overcast
9:16 AM 39.2 °F 34.2 °F 37.4 °F 93% 30.58 in 0.5 mi SE 6.9 mph - N/A   Overcast
9:36 AM 41.0 °F 36.4 °F 37.4 °F 87% 30.58 in 0.5 mi ESE 6.9 mph - N/A   Overcast
9:56 AM 41.0 °F 36.4 °F 37.4 °F 87% 30.57 in 0.5 mi ESE 6.9 mph - N/A   Overcast
10:16 AM 41.0 °F 37.1 °F 37.4 °F 87% 30.57 in 0.5 mi ESE 5.8 mph - N/A   Overcast
10:30 AM 41.0 °F 38.0 °F 37.4 °F 87% 30.57 in 3.0 mi East 4.6 mph - N/A   Overcast
10:36 AM 41.0 °F 38.0 °F 37.4 °F 87% 30.57 in 3.0 mi ESE 4.6 mph - N/A   Overcast
10:56 AM 42.8 °F 38.6 °F 37.4 °F 81% 30.57 in 4.0 mi ESE 6.9 mph - N/A   Overcast
11:16 AM 42.8 °F 38.6 °F 37.4 °F 81% 30.56 in 4.0 mi SE 6.9 mph - N/A   Overcast
11:36 AM 42.8 °F 38.0 °F 37.4 °F 81% 30.56 in 4.0 mi ESE 8.1 mph - N/A   Overcast
11:56 AM 42.8 °F 40.1 °F 37.4 °F 81% 30.56 in 10.0 mi SE 4.6 mph - N/A   Partly Cloudy
12:16 PM 42.8 °F 41.1 °F 39.2 °F 87% 30.56 in 10.0 mi ESE 3.5 mph - N/A   Partly Cloudy
12:36 PM 42.8 °F 41.1 °F 37.4 °F 81% 30.56 in 10.0 mi South 3.5 mph - N/A   Partly Cloudy
12:56 PM 44.6 °F 43.1 °F 37.4 °F 76% 30.57 in 10.0 mi SW 3.5 mph - N/A   Overcast
1:16 PM 44.6 °F - 37.4 °F 76% 30.56 in 10.0 mi Calm Calm - N/A   Overcast
1:36 PM 44.6 °F - 37.4 °F 76% 30.55 in 10.0 mi Calm Calm - N/A   Overcast
1:56 PM 44.6 °F - 37.4 °F 76% 30.55 in 10.0 mi Calm Calm - N/A   Overcast
2:16 PM 44.6 °F 42.2 °F 37.4 °F 76% 30.56 in 10.0 mi WNW 4.6 mph - N/A   Overcast
2:36 PM 44.6 °F 43.1 °F 37.4 °F 76% 30.55 in 10.0 mi NNE 3.5 mph - N/A   Overcast
2:56 PM 44.6 °F 42.2 °F 37.4 °F 76% 30.53 in 10.0 mi East 4.6 mph - N/A   Mostly Cloudy
3:16 PM 44.6 °F - 39.2 °F 81% 30.53 in 10.0 mi Calm Calm - N/A   Mostly Cloudy
3:36 PM 44.6 °F - 39.2 °F 81% 30.52 in 10.0 mi Calm Calm - N/A   Mostly Cloudy
3:56 PM 44.6 °F 43.1 °F 39.2 °F 81% 30.51 in 10.0 mi SSE 3.5 mph - N/A   Mostly Cloudy
4:16 PM 44.6 °F - 37.4 °F 76% 30.51 in 10.0 mi Calm Calm - N/A   Mostly Cloudy
4:36 PM 44.6 °F - 37.4 °F 76% 30.50 in 10.0 mi Calm Calm - N/A   Mostly Cloudy
4:56 PM 44.6 °F - 37.4 °F 76% 30.50 in 10.0 mi Calm Calm - N/A   Mostly Cloudy
5:16 PM 44.6 °F 43.1 °F 37.4 °F 76% 30.50 in 10.0 mi South 3.5 mph - N/A   Mostly Cloudy
5:36 PM 42.8 °F - 37.4 °F 81% 30.50 in 10.0 mi Calm Calm - N/A   Mostly Cloudy
5:56 PM 42.8 °F 40.1 °F 37.4 °F 81% 30.51 in 10.0 mi SW 4.6 mph - N/A   Overcast
6:16 PM 42.8 °F - 37.4 °F 81% 30.50 in 10.0 mi Calm Calm - N/A   Overcast
6:36 PM 42.8 °F 41.1 °F 37.4 °F 81% 30.50 in 10.0 mi SSE 3.5 mph - N/A   Overcast
6:56 PM 42.8 °F 41.1 °F 37.4 °F 81% 30.49 in 10.0 mi ESE 3.5 mph - N/A   Mostly Cloudy
7:16 PM 42.8 °F 41.1 °F 37.4 °F 81% 30.49 in 10.0 mi SE 3.5 mph - N/A   Mostly Cloudy
7:36 PM 42.8 °F - 37.4 °F 81% 30.48 in 10.0 mi Calm Calm - N/A   Mostly Cloudy
7:56 PM 42.8 °F 41.1 °F 37.4 °F 81% 30.48 in 10.0 mi SSE 3.5 mph - N/A   Partly Cloudy
8:16 PM 44.6 °F 42.2 °F 39.2 °F 81% 30.47 in 10.0 mi ESE 4.6 mph - N/A   Partly Cloudy
8:36 PM 44.6 °F 40.2 °F 39.2 °F 81% 30.46 in 10.0 mi ESE 8.1 mph - N/A   Partly Cloudy
8:56 PM 44.6 °F 42.2 °F 39.2 °F 81% 30.46 in 10.0 mi ESE 4.6 mph - N/A   Scattered Clouds
9:16 PM 44.6 °F - 39.2 °F 81% 30.47 in 10.0 mi Calm Calm - N/A   Scattered Clouds
9:36 PM 42.8 °F - 39.2 °F 87% 30.46 in 10.0 mi Calm Calm - N/A   Scattered Clouds
9:56 PM 42.8 °F 39.3 °F 37.4 °F 81% 30.46 in 10.0 mi ESE 5.8 mph - N/A   Scattered Clouds
10:16 PM 42.8 °F 39.3 °F 39.2 °F 87% 30.46 in 10.0 mi SE 5.8 mph - N/A   Scattered Clouds
10:36 PM 42.8 °F - 39.2 °F 87% 30.46 in 10.0 mi Calm Calm - N/A   Scattered Clouds
10:56 PM 42.8 °F - 39.2 °F 87% 30.45 in 10.0 mi Calm Calm - N/A   Scattered Clouds
11:16 PM 42.8 °F 41.1 °F 37.4 °F 81% 30.46 in 10.0 mi SSW 3.5 mph - N/A   Overcast
11:36 PM 42.8 °F 40.1 °F 39.2 °F 87% 30.44 in 10.0 mi SE 4.6 mph - N/A   Overcast
11:56 PM 42.8 °F 41.1 °F 39.2 °F 87% 30.43 in 10.0 mi SE 3.5 mph - N/A   Overcast